Weather reports worldwide

Advertisment
Cervia, Italy (16148): temperature & dewpoint: 31.05.2020 19:00:00 - 06.06.2020 19:00:00 (CEST)Cervia, Italy (16148): wind speed: 31.05.2020 19:00:00 - 06.06.2020 19:00:00 (CEST)Cervia, Italy (16148): wind direction: 31.05.2020 19:00:00 - 06.06.2020 19:00:00 (CEST)Cervia, Italy (16148): reduced air pressure: 31.05.2020 19:00:00 - 06.06.2020 19:00:00 (CEST)Cervia, Italy (16148): visibility: 31.05.2020 19:00:00 - 06.06.2020 19:00:00 (CEST)Cervia, Italy (16148): sunshine duration: 31.05.2020 19:00:00 - 06.06.2020 19:00:00 (CEST)
Date & Time tt [°C] td [°C] ff [km/h] ff [kn] dd ppp [hPa] vv [km] sd [min]
06.06.2020 19:00:00 - - - - - - - -
06.06.2020 18:00:00 24,0 14,0 18 10 ESE - 10 -
06.06.2020 17:00:00 24,0 15,8 15 8 E 1006,1 20 60
06.06.2020 16:00:00 24,0 16,0 16 9 ESE - 10 -
06.06.2020 15:00:00 23,0 15,0 18 10 E - 10 -
06.06.2020 14:00:00 23,8 15,8 21 11 E 1006,3 20 60
06.06.2020 13:00:00 23,0 14,0 18 10 E - 10 -
06.06.2020 12:00:00 23,0 14,0 18 10 ENE - 10 -
06.06.2020 11:00:00 23,2 14,2 9 5 NE 1006,5 30 60
06.06.2020 10:00:00 22,0 14,0 4 2 SE - 10 -
06.06.2020 09:00:00 20,0 13,0 4 2 SSE - 10 -
06.06.2020 08:00:00 16,9 14,7 4 2 SW 1006,8 20 60
06.06.2020 07:00:00 14,0 13,0 2 1 W - 10 -
06.06.2020 06:00:00 13,0 11,0 4 2 S - 10 -
06.06.2020 05:00:00 13,9 12,1 8 4 S 1005,9 20 -
06.06.2020 04:00:00 13,0 12,0 5 3 S - 10 -
06.06.2020 03:00:00 13,0 12,0 5 3 WSW - 10 -
06.06.2020 02:00:00 13,5 11,7 5 3 WSW 1005,5 20 -
06.06.2020 01:00:00 16,0 14,0 8 4 SW - 10 -
06.06.2020 00:00:00 16,0 14,0 5 3 SW - 10 -
05.06.2020 23:00:00 16,9 15,1 4 2 ESE 1004,0 20 -
05.06.2020 22:00:00 18,0 15,0 4 2 S - 10 -
05.06.2020 21:00:00 20,0 14,0 9 5 ESE - 10 -
05.06.2020 20:00:00 22,1 13,2 15 8 ESE 1002,1 20 60
05.06.2020 19:00:00 22,0 13,0 21 11 ESE - 10 -
05.06.2020 18:00:00 22,0 14,0 18 10 E - 10 -
05.06.2020 17:00:00 22,8 16,4 21 11 E 1000,6 20 48
05.06.2020 16:00:00 23,0 15,0 21 11 E - 10 -
05.06.2020 15:00:00 22,0 17,0 18 10 E - 10 -
05.06.2020 14:00:00 18,0 16,3 22 12 NNE 1000,1 20 18
05.06.2020 13:00:00 22,0 14,0 24 13 ENE - 10 -
05.06.2020 12:00:00 24,0 13,0 13 7 WNW - 10 -
05.06.2020 11:00:00 21,8 14,0 15 8 WSW 997,9 15 42
05.06.2020 10:00:00 20,0 14,0 5 3 WSW - 10 -
05.06.2020 09:00:00 18,0 14,0 9 5 SSE - 10 -
05.06.2020 08:00:00 17,0 14,5 11 6 S 997,0 20 0
05.06.2020 07:00:00 17,0 13,0 11 6 SW - 10 -
05.06.2020 06:00:00 16,0 14,0 13 7 SE - 10 -
05.06.2020 05:00:00 15,6 14,0 11 6 SE 996,2 20 -
05.06.2020 04:00:00 16,0 14,0 9 5 ESE - 10 -
05.06.2020 03:00:00 16,0 14,0 15 8 SE - 10 -
05.06.2020 02:00:00 16,2 14,9 13 7 S 996,8 20 -
05.06.2020 01:00:00 20,0 15,0 15 8 S - 10 -
05.06.2020 00:00:00 20,0 15,0 18 10 S - 10 -
04.06.2020 23:00:00 20,2 15,4 26 14 SSE 996,7 15 -
04.06.2020 22:00:00 20,0 15,0 15 8 SE - 10 -
04.06.2020 21:00:00 20,0 14,0 16 9 SSE - 10 -
04.06.2020 20:00:00 20,0 16,4 21 11 ESE 999,1 15 0
04.06.2020 19:00:00 20,0 16,0 31 17 ESE - 10 -
04.06.2020 18:00:00 20,0 15,0 28 15 ESE - 10 -
04.06.2020 17:00:00 20,0 16,0 28 15 ESE 1001,1 20 0
04.06.2020 16:00:00 20,0 16,0 21 11 ESE - 10 -
04.06.2020 15:00:00 20,0 17,0 22 12 ESE - 10 -
04.06.2020 14:00:00 18,8 16,8 18 10 SE 1003,3 20 0
04.06.2020 13:00:00 18,0 17,0 18 10 SE - 10 -
04.06.2020 12:00:00 18,0 17,0 13 7 ESE - 10 -
04.06.2020 11:00:00 18,2 16,4 11 6 ESE 1004,4 15 0
04.06.2020 10:00:00 18,0 15,0 9 5 S - 10 -
04.06.2020 09:00:00 20,0 13,0 26 14 SSW - 10 -
04.06.2020 08:00:00 20,8 12,8 13 7 SE 1004,0 16 24
04.06.2020 07:00:00 16,0 13,0 5 3 E - 10 -
04.06.2020 06:00:00 13,0 11,0 5 3 E - 10 -
04.06.2020 05:00:00 15,4 12,0 5 3 ENE 1004,4 16 -
04.06.2020 04:00:00 14,0 12,0 8 4 SSW - 10 -
04.06.2020 03:00:00 15,0 13,0 2 1 ESE - 10 -
04.06.2020 02:00:00 14,6 10,8 9 5 SSE 1005,6 16 -
04.06.2020 01:00:00 17,0 12,0 4 2 - - 10 -
04.06.2020 00:00:00 17,0 11,0 8 4 WSW - 10 -
03.06.2020 23:00:00 19,8 10,8 15 8 WSW 1006,0 16 -
03.06.2020 22:00:00 21,0 10,0 13 7 SW - 10 -
03.06.2020 21:00:00 22,0 10,0 21 11 WSW - 10 -
03.06.2020 20:00:00 25,0 12,2 18 10 SW 1005,3 16 24
03.06.2020 19:00:00 25,0 13,0 16 9 SW - 10 -
03.06.2020 18:00:00 25,0 13,0 18 10 WSW - 10 -
03.06.2020 17:00:00 27,2 13,9 21 11 WSW 1005,8 16 60
03.06.2020 16:00:00 26,0 14,0 11 6 SSE - 10 -
03.06.2020 15:00:00 26,0 15,0 15 8 ESE - 10 -
03.06.2020 14:00:00 26,0 14,8 15 8 E 1007,8 16 60
03.06.2020 13:00:00 25,0 15,0 15 8 E - 10 -
03.06.2020 12:00:00 25,0 12,0 8 4 - - 10 -
03.06.2020 11:00:00 24,2 13,4 11 6 WNW 1009,2 30 60
03.06.2020 10:00:00 23,0 13,0 11 6 WNW - 10 -
03.06.2020 09:00:00 21,0 14,0 5 3 WSW - 10 -
03.06.2020 08:00:00 17,3 13,8 5 3 SSW 1010,1 20 60
03.06.2020 07:00:00 15,0 13,0 5 3 WSW - 10 -
03.06.2020 06:00:00 14,0 12,0 9 5 WSW - 10 -
03.06.2020 05:00:00 16,0 13,1 5 3 SSW 1011,4 20 -
03.06.2020 04:00:00 16,0 13,0 4 2 S - 10 -
03.06.2020 03:00:00 16,0 14,0 5 3 S - 10 -
03.06.2020 02:00:00 17,0 14,3 4 2 SSW 1011,9 20 -
03.06.2020 01:00:00 18,0 14,0 5 3 S - 10 -
03.06.2020 00:00:00 19,0 14,0 4 2 S - 10 -
02.06.2020 23:00:00 19,6 13,1 11 6 SSW 1011,4 20 -
02.06.2020 22:00:00 20,0 13,0 8 4 ESE - 10 -
02.06.2020 21:00:00 21,0 13,0 8 4 E - 10 -
02.06.2020 20:00:00 23,4 12,1 11 6 E 1010,2 20 18
02.06.2020 19:00:00 24,0 12,0 13 7 ESE - 10 -
02.06.2020 18:00:00 24,0 13,0 18 10 E - 10 -
02.06.2020 17:00:00 25,0 12,2 21 11 ESE 1011,2 15 60
02.06.2020 16:00:00 26,0 11,0 21 11 ESE - 10 -
02.06.2020 15:00:00 26,0 11,0 21 11 E - 10 -
02.06.2020 14:00:00 26,0 10,6 21 11 E 1013,4 20 42
02.06.2020 13:00:00 26,0 11,0 18 10 E - 10 -
02.06.2020 12:00:00 25,0 11,0 13 7 E - 10 -
02.06.2020 11:00:00 24,1 10,0 11 6 E 1015,0 20 60
02.06.2020 10:00:00 23,0 11,0 8 4 SE - 10 -
02.06.2020 09:00:00 20,0 10,0 5 3 WSW - 10 -
02.06.2020 08:00:00 17,0 11,5 9 5 SW 1015,3 20 -
02.06.2020 07:00:00 14,0 11,0 5 3 S - 10 -
02.06.2020 06:00:00 13,0 10,0 9 5 SSW - 10 -
02.06.2020 05:00:00 13,4 10,0 4 2 WSW 1016,1 16 0
02.06.2020 04:00:00 14,0 10,0 8 4 WSW - 10 -
02.06.2020 03:00:00 13,0 10,0 13 7 SSW - 10 -
02.06.2020 02:00:00 13,0 11,1 11 6 WSW 1017,0 16 0
02.06.2020 01:00:00 13,0 11,0 8 4 WSW - 10 -
02.06.2020 00:00:00 14,0 12,0 9 5 SW - 10 -
01.06.2020 23:00:00 15,0 12,3 2 1 WSW 1016,9 16 0
01.06.2020 22:00:00 17,0 12,0 4 2 SE - 10 -
01.06.2020 21:00:00 20,0 11,0 2 1 SE - 10 -
01.06.2020 20:00:00 22,0 7,8 9 5 ESE 1016,4 20 60
01.06.2020 19:00:00 23,0 8,0 9 5 ESE - 10 -
01.06.2020 18:00:00 23,0 9,0 11 6 ESE - 10 -
01.06.2020 17:00:00 23,8 8,2 13 7 ENE 1017,2 20 60
01.06.2020 16:00:00 24,0 8,0 9 5 SE - 10 -
01.06.2020 15:00:00 24,0 8,0 8 4 E - 10 -
01.06.2020 14:00:00 23,0 8,7 9 5 E 1017,9 20 60
01.06.2020 13:00:00 23,0 9,0 11 6 SE - 10 -
01.06.2020 12:00:00 22,0 9,0 9 5 E - 10 -
01.06.2020 11:00:00 21,0 8,3 9 5 ENE 1018,2 20 60
01.06.2020 10:00:00 19,0 10,0 5 3 N - 10 -
01.06.2020 09:00:00 17,0 11,0 8 4 W - 10 -
01.06.2020 08:00:00 13,8 12,0 5 3 W 1018,4 20 36
01.06.2020 07:00:00 12,0 11,0 4 2 WNW - 10 -
01.06.2020 06:00:00 11,0 10,0 5 3 WSW - 10 -
01.06.2020 05:00:00 11,9 10,1 5 3 NW 1017,9 20 -
01.06.2020 04:00:00 13,0 11,0 8 4 SW - 10 -
01.06.2020 03:00:00 13,0 11,0 8 4 WSW - 10 -
01.06.2020 02:00:00 13,4 11,6 8 4 SW 1017,8 20 -
01.06.2020 01:00:00 14,0 12,0 4 2 WSW - 10 -
01.06.2020 00:00:00 14,0 11,0 5 3 SSE - 10 -
31.05.2020 23:00:00 13,8 11,0 5 3 S 1016,9 20 -
31.05.2020 22:00:00 16,0 12,0 8 4 ESE - 10 -
31.05.2020 21:00:00 16,0 11,0 11 6 E - 10 -
31.05.2020 20:00:00 18,8 9,0 11 6 ESE 1015,4 20 30
31.05.2020 19:00:00 20,0 9,0 15 8 SE - 10 -

tt = temperature
td = dewpoint
ff = wind speed
dd = wind direction
ppp = reduced air pressure
vv = visibility
sd = sunshine duration

Next stations